Weather History for TTCP - March, 2013

Change the Weather History Date:

Wednesday, March 6, 2013

  Actual Average Record
Temperature  
Mean Temperature 81 °F -  
Max Temperature 87 °F 84 °F 87 °F (1998)
Min Temperature 75 °F 74 °F 68 °F (1997)
Cooling Degree Days 16    
Growing Degree Days 31 (Base 50)    
Moisture  
Dew Point 70 °F    
Average Humidity 73    
Maximum Humidity 89    
Minimum Humidity 49    
Precipitation  
Precipitation 0.00 in - - ()
Sea Level Pressure  
Sea Level Pressure 29.99 in    
Wind  
Wind Speed 7 mph ()    
Max Wind Speed 22 mph    
Max Gust Speed -    
Visibility 6.2 miles    
Events      
Averages and records for this station are not official NWS values.
T = Trace of Precipitation, MM = Missing Value Source: Averaged Metar Reports

Daily Weather History Graph

Daily Weather History Graph

Search for Another Location

Airport or City:

Trip Planner

Search our weather history database for the weather conditions in past years. The results will help you decide how hot, cold, wet, or windy it might be!

Date:

Astronomy

Mar. 06, 2013 Rise Set
Actual Time 6:15 AM AST 6:13 PM AST
Civil Twilight 5:54 AM AST 6:34 PM AST
Nautical Twilight 5:29 AM AST 6:59 PM AST
Astronomical Twilight 5:05 AM AST 7:23 PM AST
Moon 1:37 AM AST (3/6) 1:31 PM AST (3/6)
Length of Visible Light 12h 40m
Length of Day
11h 58m
Waning Crescent, 30% of the Moon is Illuminated
Mar 6
Waning Crescent
Mar 11
New
Mar 19
First Quarter
Mar 27
Full
Apr 3
Last Quarter

Hourly Weather History & Observations

Time (AST) Temp. Heat Index Dew Point Humidity Pressure Visibility Wind Dir Wind Speed Gust Speed Precip Events Conditions
12:00 AM 77.0 °F - 71.6 °F 83% 30.01 in 6.2 mi NE 4.6 mph - N/A   Scattered Clouds
1:00 AM 75.2 °F - 71.6 °F 89% 29.98 in 6.2 mi NE 3.5 mph - N/A   Partly Cloudy
2:00 AM 75.2 °F - 69.8 °F 83% 29.98 in 6.2 mi Calm Calm - N/A   Partly Cloudy
3:00 AM 75.2 °F - 69.8 °F 83% 29.95 in 6.2 mi Calm Calm - N/A   Mostly Cloudy
4:00 AM 75.2 °F - 69.8 °F 83% 29.95 in 6.2 mi Calm Calm - N/A   Scattered Clouds
5:00 AM 75.2 °F - 69.8 °F 83% 29.95 in 6.2 mi Calm Calm - N/A   Partly Cloudy
6:00 AM 75.2 °F - 69.8 °F 83% 29.98 in 6.2 mi ENE 5.8 mph - N/A   Partly Cloudy
7:00 AM 77.0 °F - 69.8 °F 78% 29.98 in 6.2 mi ENE 11.5 mph - N/A   Partly Cloudy
8:00 AM 82.4 °F 92.4 °F 78.8 °F 89% 30.01 in 6.2 mi ENE 9.2 mph - N/A   Partly Cloudy
9:00 AM 84.2 °F 89.6 °F 71.6 °F 66% 30.04 in 6.2 mi East 15.0 mph - N/A   Partly Cloudy
11:00 AM 86.0 °F 90.4 °F 69.8 °F 58% 30.04 in 6.2 mi East 17.3 mph - N/A   Partly Cloudy
12:00 PM 87.8 °F 90.4 °F 66.2 °F 49% 30.01 in 6.2 mi East 18.4 mph - N/A   Partly Cloudy
1:00 PM 86.0 °F 90.4 °F 69.8 °F 58% 29.98 in 6.2 mi East 19.6 mph - N/A   Partly Cloudy
2:00 PM 87.8 °F 93.8 °F 71.6 °F 58% 29.98 in 6.2 mi East 19.6 mph - N/A   Partly Cloudy
3:00 PM 86.0 °F 89.4 °F 68.0 °F 55% 29.95 in 6.2 mi East 21.9 mph - N/A   Partly Cloudy
4:00 PM 84.2 °F 89.6 °F 71.6 °F 66% 29.95 in 6.2 mi East 19.6 mph - N/A   Partly Cloudy
5:00 PM 82.4 °F 87.2 °F 71.6 °F 70% 29.95 in 6.2 mi East 15.0 mph - N/A   Mostly Cloudy
6:00 PM 80.6 °F 83.9 °F 69.8 °F 70% 29.98 in 6.2 mi East 12.7 mph - N/A   Mostly Cloudy
8:00 PM 78.8 °F - 69.8 °F 74% 29.98 in 6.2 mi East 6.9 mph - N/A   Mostly Cloudy
9:00 PM 78.8 °F - 69.8 °F 74% 30.01 in 6.2 mi East 5.8 mph - N/A   Mostly Cloudy
10:00 PM 78.8 °F - 69.8 °F 74% 30.01 in 6.2 mi NE 3.5 mph - N/A   Scattered Clouds
11:00 PM 77.0 °F - 69.8 °F 78% 30.01 in 6.2 mi ENE 4.6 mph - N/A   Scattered Clouds